This is the latest recevied weather packets stored in our database for station/object SP1BMW-13. If no packets are shown the sender has not sent any weather packets the latest 10 day(s).
| Time | Temp. | Humidity | Pressure | Rain* | Wind** | Luminosity | Snow |
|---|---|---|---|---|---|---|---|
| 1777478459 | 14.44° C | 30% | 1028.8 hPa | 0 mm | 1.79 m/s, 293° | 214 W/m² | - |
| 1777478399 | 13.89° C | 30% | 1028.9 hPa | 0 mm | 0.89 m/s, 288° | 216 W/m² | - |
| 1777478339 | 13.89° C | 31% | 1028.7 hPa | 0 mm | 1.34 m/s, 292° | 218 W/m² | - |
| 1777478279 | 14.44° C | 29% | 1029 hPa | 0 mm | 2.24 m/s, 1° | 220 W/m² | - |
| 1777478219 | 14.44° C | 29% | 1028.8 hPa | 0 mm | 0.45 m/s, 324° | 220 W/m² | - |
| 1777478159 | 14.44° C | 29% | 1028.7 hPa | 0 mm | 1.34 m/s, 349° | 220 W/m² | - |
| 1777478099 | 14.44° C | 30% | 1028.7 hPa | 0 mm | 0.45 m/s, 26° | 226 W/m² | - |
| 1777478039 | 14.44° C | 29% | 1028.7 hPa | 0 mm | 1.34 m/s, 329° | 228 W/m² | - |
| 1777477979 | 14.44° C | 30% | 1028.8 hPa | 0 mm | 1.34 m/s, 3° | 227 W/m² | - |
| 1777477919 | 14.44° C | 30% | 1028.8 hPa | 0 mm | 0.45 m/s, 64° | 231 W/m² | - |
| 1777477859 | 14.44° C | 29% | 1028.9 hPa | 0 mm | 1.79 m/s, 314° | 232 W/m² | - |
| 1777477799 | 14.44° C | 29% | 1028.8 hPa | 0 mm | 1.34 m/s, 336° | 232 W/m² | - |
| 1777477739 | 14.44° C | 30% | 1029 hPa | 0 mm | 0.89 m/s, 353° | 232 W/m² | - |
| 1777477679 | 14.44° C | 31% | 1028.8 hPa | 0 mm | 0.45 m/s, 319° | 234 W/m² | - |
| 1777477619 | 14.44° C | 29% | 1028.8 hPa | 0 mm | 0.89 m/s, 68° | 233 W/m² | - |
| 1777477559 | 14.44° C | 29% | 1028.8 hPa | 0 mm | 0.45 m/s, 5° | 234 W/m² | - |
| 1777477499 | 13.89° C | 30% | 1028.7 hPa | 0 mm | 0 m/s | 236 W/m² | - |
| 1777477440 | 13.89° C | 28% | 1028.7 hPa | 0 mm | 0.45 m/s, 275° | 241 W/m² | - |
| 1777477379 | 14.44° C | 29% | 1028.8 hPa | 0 mm | 0 m/s | 244 W/m² | - |
| 1777477319 | 14.44° C | 28% | 1028.7 hPa | 0 mm | 0.89 m/s, 302° | 246 W/m² | - |
| 1777477259 | 14.44° C | 29% | 1028.9 hPa | 0 mm | 1.79 m/s, 5° | 252 W/m² | - |
| 1777477199 | 14.44° C | 30% | 1028.8 hPa | 0 mm | 1.34 m/s, 9° | 256 W/m² | - |
| 1777477139 | 14.44° C | 29% | 1028.8 hPa | 0 mm | 1.79 m/s, 32° | 259 W/m² | - |
| 1777477080 | 14.44° C | 30% | 1028.8 hPa | 0 mm | 1.34 m/s, 44° | 261 W/m² | - |
| 1777477019 | 14.44° C | 30% | 1028.9 hPa | 0 mm | 0.89 m/s, 126° | 263 W/m² | - |
* Rain latest hour (hover to see other rain measurements)
** Current wind speed in m/s (hover to see current wind gust speed)